📊 Raw Sensor Data
Showing records 44976 to 45000 of 85,045 total
| ID | Distance (ft) | Battery V | Battery A | Int Temp (°F) | Int Humid (%) | Ext Temp (°F) | Solar V | RSSI | SNR | Time Stamp |
|---|---|---|---|---|---|---|---|---|---|---|
| 40082 | -- | 3.92 | -5 | 64 | 46 | 65 | 0.00 | -69 | 8 | 05/08/2025 10:15 PM |
| 40081 | 15.9 | 3.92 | -5 | 64 | 47 | 65 | 0.00 | -68 | 8 | 05/08/2025 10:00 PM |
| 40080 | -- | 3.92 | -5 | 65 | 48 | 65 | 0.00 | -68 | 7 | 05/08/2025 09:45 PM |
| 40079 | 15.9 | 3.98 | -5 | 66 | 49 | 66 | 0.00 | -70 | 9 | 05/08/2025 09:30 PM |
| 40078 | -- | 3.98 | -5 | 67 | 50 | 67 | 0.00 | -70 | 8 | 05/08/2025 09:15 PM |
| 40077 | 15.8 | 3.98 | -5 | 68 | 51 | 69 | 0.10 | -69 | 7 | 05/08/2025 09:00 PM |
| 40076 | 15.8 | 3.93 | -5 | 69 | 53 | 69 | 0.10 | -69 | 8 | 05/08/2025 08:45 PM |
| 40075 | 15.8 | 3.93 | -5 | 71 | 55 | 70 | 0.00 | -69 | 8 | 05/08/2025 08:30 PM |
| 40074 | 15.8 | 3.99 | -5 | 74 | 57 | 71 | 1.50 | -69 | 7 | 05/08/2025 08:15 PM |
| 40073 | 15.9 | 3.92 | -24 | 79 | 57 | 74 | 4.50 | -69 | 7 | 05/08/2025 08:00 PM |
| 40072 | 16.0 | 4.00 | 0 | 85 | 55 | 79 | 4.50 | -69 | 7 | 05/08/2025 07:45 PM |
| 40071 | 15.9 | 4.01 | 0 | 91 | 54 | 83 | 4.50 | -69 | 7 | 05/08/2025 07:30 PM |
| 40070 | 16.0 | 4.02 | 8 | 96 | 52 | 87 | 4.50 | -70 | 8 | 05/08/2025 07:15 PM |
| 40069 | 16.0 | 4.03 | -8 | 98 | 51 | 93 | 4.50 | -69 | 8 | 05/08/2025 07:00 PM |
| 40068 | 16.0 | 4.01 | 31 | 100 | 50 | 95 | 4.50 | -70 | 8 | 05/08/2025 06:45 PM |
| 40067 | 16.0 | 3.98 | 0 | 102 | 49 | 95 | 5.10 | -70 | 8 | 05/08/2025 06:30 PM |
| 40066 | 16.0 | 3.98 | 0 | 102 | 48 | 92 | 5.10 | -69 | 8 | 05/08/2025 06:15 PM |
| 40065 | 16.0 | 3.98 | 0 | 103 | 47 | 94 | 5.10 | -70 | 7 | 05/08/2025 06:00 PM |
| 40064 | 16.1 | 3.98 | 0 | 103 | 46 | 95 | 5.10 | -70 | 8 | 05/08/2025 05:45 PM |
| 40063 | 16.0 | 3.98 | 0 | 103 | 45 | 88 | 5.10 | -69 | 8 | 05/08/2025 05:30 PM |
| 40062 | 16.0 | 3.97 | 0 | 102 | 45 | 94 | 5.10 | -69 | 8 | 05/08/2025 05:15 PM |
| 40061 | 15.9 | 3.97 | 0 | 100 | 45 | 88 | 5.10 | -69 | 8 | 05/08/2025 05:00 PM |
| 40060 | 16.0 | 3.98 | 0 | 101 | 44 | 94 | 5.10 | -69 | 8 | 05/08/2025 04:45 PM |
| 40059 | 16.0 | 3.97 | 0 | 101 | 43 | 87 | 5.10 | -69 | 8 | 05/08/2025 04:30 PM |
| 40058 | 16.0 | 3.97 | 0 | 100 | 43 | 92 | 5.10 | -70 | 8 | 05/08/2025 04:15 PM |